Location: Potomac Astrometric Observatory
(39.0475°N, 77.2064°W)
Time: 21:48:00
(UTC-04:00)

N. Korean satellite - Visible Passes

Search period start: 21 March 2019 00:00
Search period end: 31 March 2019 00:00
Orbit: 456 x 510 km, 97.2° (Epoch: 20 March)

Date Brightness Start Highest point End Pass type
(mag) Time Alt. Az. Time Alt. Az. Time Alt. Az.
23 Mar 9.7 06:34:51 10° NE 06:37:37 21° E 06:40:24 10° SE visible
24 Mar 10.5 06:12:08 10° E 06:12:38 10° E 06:13:09 10° E visible
27 Mar 9.8 06:29:09 10° NE 06:31:43 18° E 06:34:17 10° SE visible
